Tracking 30970 objects as of 3-Jul-2025
HD Live streaming from Space Station
objects crossing your sky now

STARLINK-5986

Track STARLINK-5986 now!
10-day predictions
STARLINK-5986 is classified as:


NORAD ID: 56452
Int'l Code: 2023-064E
Perigee: 577.3 km
Apogee: 581.1 km
Inclination: 70.0 °
Period: 96.1 minutes
Semi major axis: 6950 km
RCS: Unknown
Launch date: May 10, 2023
Source: United States (US)
Launch site: AIR FORCE WESTERN TEST RANGE (AFWTR)
Your satellite tracking list
EUTE 5 WEST A (STELLAT5)
Track 1 satellite(s)




NASA's NSSDC Master Catalog

Two Line Element Set (TLE):
1 56452U 23064E   25183.94857787  .00000104  00000-0  16487-4 0  9996
2 56452  70.0002  54.2897 0002731 269.1903  90.8943 14.98332530117832
Source of the keplerian elements: AFSPC